Weather in Anyksciai

Lithuania     55°31′42″N   25°05′48″E
temp.,
°C
wind,
m/s
gust,
m/s
humid.,
%
clouds,
%
prec.,
mm/h
press.,
hPa
HPBL,
m
28 july, wed
wed2800:00+18s3796100 0.0 1011152
03:00+17sw349699 0.0 101183
06:00+17wsw249654 0.0 101178
09:00+20wsw34815 0.0 1011337
12:00+25wsw445819 0.0 10111036
15:00+27wsw554752 0.0 10101783
18:00+27wsw56476 0.0 10092293
21:00+22wsw22695 0.0 100921
29 july, thu
thu2900:00+19s2274100 0.0 100911
03:00+19ssw3771100 0.0 1008157
06:00+18ssw399196 0.2 1008280
09:00+20wsw468367 0.2 1008581
12:00+24w56565 0.0 10081327
15:00+26wsw574552 0.0 10072192
18:00+23wnw475999 0.0 1007786
21:00+20wsw36703 0.0 1007215
30 july, fri
fri3000:00+18wsw377722 0.1 1008192
03:00+14sw35915 0.1 100898
06:00+13sw379319 0.0 1008137
09:00+19wsw61072100 0.4 10071204
12:00+22wsw8144550 0.2 10072346
15:00+22wsw71246100 0.2 10062476
18:00+21sw7125021 0.0 10051300
21:00+19sw5105793 0.0 1004396
31 july, sat
sat3100:00+15sw513714 0.0 1005362
03:00+16sw614685 0.0 1005593
06:00+14sw513766 0.0 1005373
09:00+18sw61065100 0.0 1006567
12:00+23wsw6846100 0.0 10061170
15:00+24sw5746100 0.0 10051242
18:00+21ssw5964100 0.0 1004593
21:00+17sw4119394 1.3 1004379
1 august, sun
sun100:00+16sw3596100 0.3 1004103
03:00+14sw33920 0.4 100550
06:00+13sw411940 0.0 1005278
09:00+17sw612800 0.0 1006605
12:00+20wsw796799 0.2 10071318
15:00+20wsw5869100 0.5 1007881
18:00+21wsw4767100 0.2 10071006
21:00+17wsw2278100 0.3 100712